Year,Month,Day,Hour,Minute,Value (Times are PST for barometer in hPa)
2023,11,02,12,07,969.29
2023,11,02,12,08,968.99
2023,11,02,12,09,968.37
2023,11,02,12,10,968.34
2023,11,02,12,11,968.34
2023,11,02,12,12,968.34
2023,11,02,12,13,968.34
2023,11,02,12,14,966.60
2023,11,02,12,15,966.51
2023,11,02,12,16,964.23
2023,11,02,12,17,964.38
2023,11,02,12,18,964.38
2023,11,02,12,19,964.38
2023,11,02,12,20,964.38
2023,11,02,12,21,964.38
2023,11,02,12,22,964.38
2023,11,02,12,23,964.38
2023,11,02,12,24,968.93
2023,11,02,12,25,969.38
2023,11,02,12,26,969.39
2023,11,02,12,27,969.39
2023,11,02,12,28,969.39
2023,11,02,12,29,951.73
2023,11,02,12,30,950.90
2023,11,02,12,31,950.67
2023,11,02,12,32,950.54
2023,11,02,12,33,950.49
2023,11,02,12,34,950.49
2023,11,02,12,35,950.49
2023,11,02,12,36,950.49
2023,11,02,12,37,950.49
2023,11,02,12,38,953.42
2023,11,02,12,39,953.57
2023,11,02,12,40,953.57
2023,11,02,12,41,953.57
2023,11,02,12,42,942.28
2023,11,02,12,43,941.69
2023,11,02,12,44,941.69
2023,11,02,12,45,941.69
2023,11,02,12,46,941.69
2023,11,02,12,47,941.69
2023,11,02,12,48,941.69
2023,11,02,12,49,941.69
2023,11,02,12,50,941.69
2023,11,02,12,51,941.69
2023,11,02,12,52,941.69
2023,11,02,12,53,941.69
2023,11,02,12,54,941.69
2023,11,02,12,55,941.69
2023,11,02,12,56,941.69
2023,11,02,12,57,941.69
2023,11,02,12,58,941.76
2023,11,02,12,59,941.72
2023,11,02,13,00,941.79
2023,11,02,13,01,941.79
2023,11,02,13,02,941.79
2023,11,02,13,03,941.79
2023,11,02,13,04,941.79
2023,11,02,13,05,941.79
2023,11,02,13,06,941.79
2023,11,02,13,07,941.79
2023,11,02,13,08,941.79
2023,11,02,13,09,941.79
2023,11,02,13,10,941.79
2023,11,02,13,11,941.79
2023,11,02,13,12,941.79
2023,11,02,13,13,941.79
2023,11,02,13,14,941.79
2023,11,02,13,15,941.79
2023,11,02,13,16,941.79
2023,11,02,13,17,941.79
2023,11,02,13,18,941.79
2023,11,02,13,19,941.79
2023,11,02,13,20,941.79
2023,11,02,13,21,941.79
2023,11,02,13,22,941.79
2023,11,02,13,23,941.79
2023,11,02,13,24,941.79
2023,11,02,13,25,941.79
2023,11,02,13,26,941.79
2023,11,02,13,27,941.82
2023,11,02,13,28,941.82
2023,11,02,13,29,941.89
2023,11,02,13,30,941.89
2023,11,02,13,31,941.89
2023,11,02,13,32,941.89
2023,11,02,13,33,941.89
2023,11,02,13,34,941.89
2023,11,02,13,35,941.89
2023,11,02,13,36,941.89
2023,11,02,13,37,941.89
2023,11,02,13,38,941.89
2023,11,02,13,39,941.89
2023,11,02,13,40,941.89
2023,11,02,13,41,941.89
2023,11,02,13,42,941.89
2023,11,02,13,43,941.89
2023,11,02,13,44,941.89
2023,11,02,13,45,941.89
2023,11,02,13,46,941.89
2023,11,02,13,47,941.89
2023,11,02,13,48,941.89
2023,11,02,13,49,941.89
2023,11,02,13,50,941.89
2023,11,02,13,51,941.89
2023,11,02,13,52,941.89
2023,11,02,13,53,941.89
2023,11,02,13,54,941.89
2023,11,02,13,55,941.89
2023,11,02,13,56,941.89
2023,11,02,13,57,941.89
2023,11,02,13,58,941.89
2023,11,02,13,59,941.89
2023,11,02,14,00,941.89
2023,11,02,14,01,941.89
2023,11,02,14,02,941.89
2023,11,02,14,03,941.89
2023,11,02,14,04,941.89
2023,11,02,14,05,941.89
2023,11,02,14,06,941.89
2023,11,02,14,07,941.89
2023,11,02,14,08,941.89
2023,11,02,14,09,941.89
2023,11,02,14,10,941.89
2023,11,02,14,11,941.89
2023,11,02,14,12,941.89
2023,11,02,14,13,941.89
2023,11,02,14,14,941.89
2023,11,02,14,15,941.89
2023,11,02,14,16,941.89
2023,11,02,14,17,941.89
2023,11,02,14,18,941.89
2023,11,02,14,19,941.89
2023,11,02,14,20,941.89
2023,11,02,14,21,941.89
2023,11,02,14,22,941.89
2023,11,02,14,23,941.89
2023,11,02,14,24,941.89
2023,11,02,14,25,941.89
2023,11,02,14,26,941.89
2023,11,02,14,27,941.89
2023,11,02,14,28,941.89
2023,11,02,14,29,941.89
2023,11,02,14,30,941.89
2023,11,02,14,31,941.89
2023,11,02,14,32,941.89
2023,11,02,14,33,941.89
2023,11,02,14,34,941.89
2023,11,02,14,35,941.89
2023,11,02,14,36,941.89
2023,11,02,14,37,941.89
2023,11,02,14,38,941.89
2023,11,02,14,39,941.89
2023,11,02,14,40,941.89
2023,11,02,14,41,941.89
2023,11,02,14,42,941.89
2023,11,02,14,43,941.89
2023,11,02,14,44,941.89
2023,11,02,14,45,941.89
2023,11,02,14,46,941.89
2023,11,02,14,47,941.89
2023,11,02,14,48,941.89
2023,11,02,14,49,941.89
2023,11,02,14,50,941.89
2023,11,02,14,51,941.89
2023,11,02,14,52,941.89
2023,11,02,14,53,941.82
2023,11,02,14,54,941.79
2023,11,02,14,55,941.79
2023,11,02,14,56,941.79
2023,11,02,14,57,941.79
2023,11,02,14,58,941.79
2023,11,02,14,59,941.79
2023,11,02,15,00,941.79
2023,11,02,15,01,941.79
2023,11,02,15,02,941.79
2023,11,02,15,03,941.79
2023,11,02,15,04,941.79
2023,11,02,15,05,941.79
2023,11,02,15,06,941.79
2023,11,02,15,07,941.79
2023,11,02,15,08,941.79
2023,11,02,15,09,941.79
2023,11,02,15,10,941.79
2023,11,02,15,11,941.79
2023,11,02,15,12,941.79
2023,11,02,15,13,941.79
2023,11,02,15,14,941.79
2023,11,02,15,15,941.79
2023,11,02,15,16,941.79
2023,11,02,15,17,941.79
2023,11,02,15,18,941.72
2023,11,02,15,19,941.69
2023,11,02,15,20,941.69
2023,11,02,15,21,941.69
2023,11,02,15,22,941.69
2023,11,02,15,23,941.69
2023,11,02,15,24,941.69
2023,11,02,15,25,941.69
2023,11,02,15,26,941.69
2023,11,02,15,27,941.69
2023,11,02,15,28,941.69
2023,11,02,15,29,941.69
2023,11,02,15,30,941.69
2023,11,02,15,31,941.69
2023,11,02,15,32,941.69
2023,11,02,15,33,941.69
2023,11,02,15,34,941.69
2023,11,02,15,35,941.69
2023,11,02,15,36,941.69
2023,11,02,15,37,941.69
2023,11,02,15,38,941.69
2023,11,02,15,39,941.69
2023,11,02,15,40,941.69
2023,11,02,15,41,941.69
2023,11,02,15,42,941.69
2023,11,02,15,43,941.69
2023,11,02,15,44,941.69
2023,11,02,15,45,943.18
2023,11,02,15,46,943.18
2023,11,02,15,47,943.18
2023,11,02,15,48,943.18
2023,11,02,15,49,943.18
2023,11,02,15,50,943.18
2023,11,02,15,51,953.57
2023,11,02,15,52,953.57
2023,11,02,15,53,951.74
2023,11,02,15,54,951.32
2023,11,02,15,55,950.90
2023,11,02,15,56,950.90
2023,11,02,15,57,947.93
2023,11,02,15,58,947.78
2023,11,02,15,59,950.49
2023,11,02,16,00,950.49
2023,11,02,16,01,950.49
2023,11,02,16,02,950.49
2023,11,02,16,03,950.49
2023,11,02,16,04,950.49
2023,11,02,16,05,950.53
2023,11,02,16,06,950.53
2023,11,02,16,07,950.53
2023,11,02,16,08,950.53
2023,11,02,16,09,950.77
2023,11,02,16,10,950.86
2023,11,02,16,11,950.90
2023,11,02,16,12,950.86
2023,11,02,16,13,950.80
2023,11,02,16,14,950.80
2023,11,02,16,15,950.80
2023,11,02,16,16,950.80
2023,11,02,16,17,950.80
2023,11,02,16,18,950.80
2023,11,02,16,19,950.80
2023,11,02,16,20,950.80
2023,11,02,16,21,950.80
2023,11,02,16,22,950.80
2023,11,02,16,23,950.80
2023,11,02,16,24,950.80
2023,11,02,16,25,969.73
2023,11,02,16,26,969.29
2023,11,02,16,27,969.35
2023,11,02,16,28,970.03
2023,11,02,16,29,969.96
2023,11,02,16,30,969.86
2023,11,02,16,31,969.76
2023,11,02,16,32,969.59
2023,11,02,16,33,969.59
2023,11,02,16,34,970.82
2023,11,02,16,35,970.88
2023,11,02,16,36,970.88
2023,11,02,16,37,970.88
2023,11,02,16,38,970.88
2023,11,02,16,39,970.88
2023,11,02,16,40,970.88
2023,11,02,16,41,970.88
2023,11,02,16,42,970.88
2023,11,02,16,43,966.07
2023,11,02,16,44,966.07
2023,11,02,16,45,966.07
2023,11,02,16,46,964.65
2023,11,02,16,47,964.65
2023,11,02,16,48,964.65
2023,11,02,16,49,964.65
2023,11,02,16,50,964.65
2023,11,02,16,51,964.65
2023,11,02,16,52,965.45
2023,11,02,16,53,965.49
2023,11,02,16,54,964.14
2023,11,02,16,55,963.73
2023,11,02,16,56,963.56
2023,11,02,16,57,963.83
2023,11,02,16,58,963.73
2023,11,02,16,59,964.11
2023,11,02,17,00,963.56
2023,11,02,17,01,964.08
2023,11,02,17,02,964.11
2023,11,02,17,03,964.82
2023,11,02,17,04,964.85
2023,11,02,17,05,965.05
2023,11,02,17,06,965.12
2023,11,02,17,07,964.88
2023,11,02,17,08,965.49
2023,11,02,17,09,964.98
2023,11,02,17,10,965.51
2023,11,02,17,11,965.93
2023,11,02,17,12,965.51
2023,11,02,17,13,965.49
2023,11,02,17,14,967.22
2023,11,02,17,15,967.22
2023,11,02,17,16,968.31
2023,11,02,17,17,968.37
2023,11,02,17,18,968.37
2023,11,02,17,19,968.37
2023,11,02,17,20,968.37
2023,11,02,17,21,968.37
2023,11,02,17,22,968.37
2023,11,02,17,23,968.37
2023,11,02,17,24,968.37
2023,11,02,17,25,968.37
2023,11,02,17,26,968.03
2023,11,02,17,27,968.37
2023,11,02,17,28,968.37
2023,11,02,17,29,968.37
2023,11,02,17,30,968.03
2023,11,02,17,31,968.03
2023,11,02,17,32,968.42
2023,11,02,17,33,968.44
2023,11,02,17,34,968.10
2023,11,02,17,35,968.44
2023,11,02,17,36,968.34
2023,11,02,17,37,968.34
2023,11,02,17,38,968.34
2023,11,02,17,39,966.65
2023,11,02,17,40,966.65
2023,11,02,17,41,966.65
2023,11,02,17,42,966.65
2023,11,02,17,43,966.65
2023,11,02,17,44,965.02
2023,11,02,17,45,964.34
2023,11,02,17,46,963.67
2023,11,02,17,47,963.94
2023,11,02,17,48,963.97
2023,11,02,17,49,963.73
2023,11,02,17,50,963.36
2023,11,02,17,51,963.36
2023,11,02,17,52,965.09
2023,11,02,17,53,965.73
2023,11,02,17,54,965.73
2023,11,02,17,55,966.88
2023,11,02,17,56,966.88
2023,11,02,17,57,966.78
2023,11,02,17,58,966.78
2023,11,02,17,59,967.90
2023,11,02,18,00,968.00
2023,11,02,18,01,968.00
2023,11,02,18,02,968.00
2023,11,02,18,03,967.90
2023,11,02,18,04,967.49
2023,11,02,18,05,967.49
2023,11,02,18,06,967.49
2023,11,02,18,07,967.49
2023,11,02,18,08,967.49
2023,11,02,18,09,967.49
2023,11,02,18,10,967.49
2023,11,02,18,11,967.49
2023,11,02,18,12,967.49
2023,11,02,18,13,967.49
2023,11,02,18,14,967.49
2023,11,02,18,15,967.49
2023,11,02,18,16,967.49
2023,11,02,18,17,967.49
2023,11,02,18,18,967.49
2023,11,02,18,19,967.49
2023,11,02,18,20,967.49
2023,11,02,18,21,967.49
2023,11,02,18,22,967.49
2023,11,02,18,23,967.49
2023,11,02,18,24,967.49
2023,11,02,18,25,967.49
2023,11,02,18,26,967.49
2023,11,02,18,27,987.74
2023,11,02,18,28,987.74
2023,11,02,18,29,987.74
2023,11,02,18,30,987.74
2023,11,02,18,31,987.74
2023,11,02,18,32,987.74
2023,11,02,18,33,987.74
2023,11,02,18,34,987.74
2023,11,02,18,35,987.74
2023,11,02,18,36,987.74
2023,11,02,18,37,987.74
2023,11,02,18,38,987.74
2023,11,02,18,39,987.74
2023,11,02,18,40,987.74
2023,11,02,18,41,987.74
2023,11,02,18,42,987.74
2023,11,02,18,43,987.74
2023,11,02,18,44,987.74
2023,11,02,18,45,987.74
2023,11,02,18,46,987.74
2023,11,02,18,47,987.74
2023,11,02,18,48,987.74
2023,11,02,18,49,987.74
2023,11,02,18,50,987.74
